PulseSat

PulseSat

GSAT0201 (PRN E18)

Last updated on March 25, 2019, 3:11 a.m. UTC

1 40128U 14050A   19082.17452404 -.00000107  00000-0  00000-0 0  9991
2 40128  50.5551  19.4319 1661767  84.7184 293.8887  1.85518539 31229
UTC
Height (km)
Latitude
Longitude
Inclination
Orbital Period

Next 30 passes for location: Hong Kong

Rise time Rise Azimuth (degrees) Set time Set Azimuth (degrees) Duration Max altitude (degrees)

No matching passes for this satellites

PulseSat

PulseSat is the new satellites software and hardware trackering solution by Pulsely.
Satellite Two Line Element Set source: US Air Force Space Command

Download PulseSat for iOS
© 2017 Pulsely Limited